Location: Bougoura
(13.1861°N, 5.0773°W)
Time: 01:01:38
(UTC+00:00)

H-10 deb - Pass Details

Date: 18 September 2020
Orbit: 374 x 32717 km, 7.1° (Epoch: 20 October)

Event Time Altitude Azimuth Distance (km) Brightness Sun altitude
Rises 11:46:27 0° 262° (W) 13,753 8.8 76.5°
Reaches altitude 10° 11:57:16 10° 259° (WSW) 15,330 9.2 77.6°
Drops below altitude 10° 18:11:37 10° 257° (WSW) 30,714 12.5 1.0°
Maximum altitude 20:28:05 51° 188° (S) 2,293 4.7 -32.1°
Enters shadow 20:29:34 47° 159° (SSE) 2,033 4.3 -32.4°
